Simultaneous Nadir Overpasses (SNOs) Predictions

Prediction of SNOs between NOAA-20 and METOP-B Satellite Orbit:

Table of predicted SNOs for the next 14.0 days since TLE Epoch: 10/20/2024
Index Date (NOAA-20) Time (NOAA-20) Lat,Lon (NOAA-20) SZA (NOAA-20 ) Date (METOP-B) Time (METOP-B) Lat,Lon (METOP-B) SZA (METOP-B ) Distance(km) Time Diff (sec)
1 11/02/2024 07:04:11 74.20, 62.24 89.17 11/02/2024 07:05:18 74.15, 64.97 89.03 83.19 67
2 11/02/2024 07:54:53 -74.12,-130.23 90.91 11/02/2024 07:56:01 -74.10,-127.83 91.01 73.18 68
3 11/02/2024 08:45:35 73.91, 37.58 88.88 11/02/2024 08:46:45 73.86, 38.94 88.79 42.56 70
4 11/02/2024 09:36:17 -73.83,-154.90 91.20 11/02/2024 09:37:29 -73.76,-153.96 91.30 29.85 72
5 11/02/2024 10:26:58 73.57, 13.01 88.54 11/02/2024 10:28:12 73.58, 12.94 88.54 2.27 74
6 11/02/2024 11:17:42 -73.59,-179.71 91.44 11/02/2024 11:18:54 -73.58,-179.73 91.45 1.30 72
7 11/02/2024 12:08:28 73.58, -12.38 88.57 11/02/2024 12:09:33 73.59, -12.37 88.57 1.30 65
8 11/02/2024 12:59:12 -73.59, 154.91 91.41 11/02/2024 13:00:15 -73.59, 154.96 91.42 1.67 63
9 11/02/2024 13:49:58 73.58, -37.77 88.60 11/02/2024 13:50:54 73.60, -37.68 88.61 3.49 56
10 11/02/2024 14:40:41 -73.55, 129.63 91.43 11/02/2024 14:41:37 -73.55, 129.54 91.43 3.05 56
11 11/02/2024 15:31:28 73.59, -63.16 88.63 11/02/2024 15:32:16 73.57, -63.10 88.60 3.30 48
12 11/02/2024 16:22:11 -73.55, 104.24 91.40 11/02/2024 16:22:58 -73.57, 104.23 91.40 1.43 47
13 11/02/2024 17:12:57 73.55, -88.43 88.60 11/02/2024 17:13:38 73.53, -88.52 88.58 3.55 41
14 11/02/2024 18:03:41 -73.56, 78.85 91.38 11/02/2024 18:04:19 -73.58, 78.92 91.36 2.95 38
15 11/02/2024 18:54:27 73.55,-113.82 88.63 11/02/2024 18:54:59 73.54,-113.83 88.62 1.33 32
16 11/02/2024 19:45:11 -73.57, 53.46 91.35 11/02/2024 19:45:41 -73.54, 53.50 91.37 2.85 30
17 11/02/2024 20:35:57 73.56,-139.21 88.66 11/02/2024 20:36:20 73.56,-139.14 88.65 2.22 23
18 11/02/2024 21:26:40 -73.52, 28.19 91.37 11/02/2024 21:27:02 -73.56, 28.19 91.34 3.63 22
19 11/02/2024 22:17:26 73.52,-164.48 88.64 11/02/2024 22:17:42 73.52,-164.56 88.64 2.52 16
20 11/02/2024 23:08:10 -73.53, 2.80 91.34 11/02/2024 23:08:24 -73.52, 2.76 91.35 1.62 14
21 11/02/2024 23:58:56 73.52, 170.13 88.67 11/02/2024 23:59:03 73.53, 170.13 88.67 0.96 7
22 11/03/2024 00:49:40 -73.54, -22.59 91.31 11/03/2024 00:49:45 -73.53, -22.54 91.32 1.46 5
23 11/03/2024 01:40:26 73.53, 144.74 88.70 11/03/2024 01:40:24 73.54, 144.82 88.71 3.06 2
24 11/03/2024 02:31:09 -73.49, -47.86 91.34 11/03/2024 02:31:07 -73.50, -47.97 91.33 3.26 2



Historial Predications of SNOs between NOAA-20 and METOP-B
